Date String (YYYY-MM-DD hh:mm:ss) UTC,Instrument flags,absolute air pressure of the measurement (hPa),sample flow rate (lpm),inlet stack bypass flow (lpm),air temperature of the measurement (°C),ambient temperature measured by the external sensor (°C),aerosol sample conditioner tube jacket temperature (°C),OPC LED temperature (°C),internal box temperature (°C),relative humidity of the measurement (%),span deviation,mass concentration of particles derived from Lorenz-Mie calculation of OPC scattering (μg/m³),mass concentration of particles derived from Lorenz-Mie calculation of OPC scattering (μg/m³),mass concentration of particles derived from Lorenz-Mie calculation of OPC scattering (μg/m³)
DateTimeUTC,F1_M11,P_M11,Q1_M11,Q2_M11,T1_M11,T2_M11,T3_M11,T4_M11,T5_M11,U1_M11,ZSPAN_M11,X0_M11,X2_M11,X1_M11
2024-04-01 14:00:00,SystemResetWarning,0821.1,5.00,000.00,020.1,019.3,000.0,028.7,021.9,31.0,0000.0,0002.27,0001.50,0001.30
2024-04-01 14:01:00,SystemResetWarning,0821.1,5.00,000.00,020.1,019.3,000.0,028.7,021.9,30.9,0000.0,0002.31,0001.51,0001.29
2024-04-01 14:02:00,SystemResetWarning,0821.4,5.00,000.00,020.1,019.3,000.0,028.7,021.9,31.0,0000.0,0002.28,0001.49,0001.28
2024-04-01 14:03:00,SystemResetWarning,0821.1,5.00,000.00,020.1,019.3,000.0,028.7,021.9,30.9,0000.0,0002.30,0001.50,0001.27
2024-04-01 14:04:00,SystemResetWarning,0821.2,5.00,000.00,020.1,019.3,000.0,028.7,021.9,30.9,0000.0,0002.29,0001.48,0001.25
2024-04-01 14:05:00,SystemResetWarning,0821.2,5.00,000.00,020.1,019.3,000.0,028.7,021.9,30.8,0000.0,0002.20,0001.43,0001.22
2024-04-01 14:06:00,SystemResetWarning,0821.2,5.01,000.00,020.1,019.4,000.0,028.7,021.9,30.9,0000.0,0002.25,0001.41,0001.20
2024-04-01 14:07:00,SystemResetWarning,0821.3,5.00,000.00,020.1,019.4,000.0,028.7,021.9,30.8,0000.0,0002.29,0001.38,0001.17
2024-04-01 14:08:00,SystemResetWarning,0821.3,5.00,000.00,020.1,019.4,000.0,028.7,021.9,30.6,0000.0,0002.27,0001.36,0001.14
2024-04-01 14:09:00,SystemResetWarning,0821.2,5.00,000.00,020.1,019.4,000.0,028.7,021.9,30.6,0000.0,0002.00,0001.34,0001.10
2024-04-01 14:10:00,SystemResetWarning,0821.2,4.99,000.00,020.1,019.4,000.0,028.7,021.9,30.8,0000.0,0001.89,0001.30,0001.07
2024-04-01 14:11:00,SystemResetWarning,0821.3,5.00,000.00,020.1,019.4,000.0,028.7,021.9,31.0,0000.0,0001.86,0001.27,0001.05
2024-04-01 14:12:00,SystemResetWarning,0821.3,4.99,000.00,020.1,019.4,000.0,028.7,021.9,31.1,0000.0,0001.85,0001.27,0001.05
2024-04-01 14:13:00,SystemResetWarning,0821.3,5.00,000.00,020.1,019.4,000.0,028.7,021.9,30.5,0000.0,0001.86,0001.26,0001.04
2024-04-01 14:14:00,SystemResetWarning,0821.3,5.01,000.00,020.1,019.4,000.0,028.7,021.9,29.9,0000.0,0001.94,0001.23,0001.02
2024-04-01 14:15:00,SystemResetWarning,0821.3,5.00,000.00,020.1,019.4,000.0,028.7,021.9,30.1,0000.0,0001.92,0001.20,0001.00
2024-04-01 14:16:00,SystemResetWarning,0821.3,5.00,000.00,020.1,019.4,000.0,028.7,021.9,29.5,0000.0,0001.91,0001.17,0000.97
2024-04-01 14:17:00,SystemResetWarning,0821.3,5.01,000.00,020.1,019.4,000.0,028.7,021.9,29.8,0000.0,0001.93,0001.19,0000.97
2024-04-01 14:18:00,SystemResetWarning,0821.3,5.01,000.00,020.1,019.4,000.0,028.7,021.9,29.6,0000.0,0001.83,0001.19,0000.98
2024-04-01 14:19:00,SystemResetWarning,0821.3,4.99,000.00,020.1,019.5,000.0,028.7,021.9,29.3,0000.0,0001.95,0001.24,0001.00
2024-04-01 14:20:00,SystemResetWarning,0821.4,4.99,000.00,020.1,019.5,000.0,028.7,021.9,29.4,0000.0,0001.94,0001.24,0001.01
2024-04-01 14:21:00,SystemResetWarning,0821.3,5.00,000.00,020.1,019.5,000.0,028.7,021.9,29.7,0000.0,0001.94,0001.24,0001.01
2024-04-01 14:22:00,SystemResetWarning,0821.3,4.99,000.00,020.1,019.5,000.0,028.7,021.9,29.2,0000.0,0001.93,0001.24,0001.01
2024-04-01 14:23:00,SystemResetWarning,0821.4,5.00,000.00,020.1,019.5,000.0,028.7,021.9,28.6,0000.0,0001.91,0001.22,0001.00
2024-04-01 14:24:00,SystemResetWarning,0821.4,5.00,000.00,020.1,019.5,000.0,028.7,021.9,28.6,0000.0,0001.96,0001.24,0001.01
2024-04-01 14:25:00,SystemResetWarning,0821.3,5.00,000.00,020.1,019.6,000.0,028.7,022.0,28.8,0000.0,0001.88,0001.25,0001.03
2024-04-01 14:26:00,SystemResetWarning,0821.4,5.01,000.00,020.2,019.6,000.0,028.7,022.0,29.2,0000.0,0001.87,0001.29,0001.07
2024-04-01 14:27:00,SystemResetWarning,0821.3,5.00,000.00,020.2,019.6,000.0,028.7,022.0,29.3,0000.0,0001.92,0001.34,0001.11
2024-04-01 14:28:00,SystemResetWarning,0821.3,5.00,000.00,020.2,019.6,000.0,028.7,022.0,28.8,0000.0,0001.97,0001.37,0001.13
2024-04-01 14:29:00,SystemResetWarning,0821.3,4.99,000.00,020.2,019.6,000.0,028.7,022.0,28.5,0000.0,0001.92,0001.35,0001.13
2024-04-01 14:30:00,SystemResetWarning,0821.3,5.00,000.00,020.2,019.6,000.0,028.7,022.0,28.6,0000.0,0001.78,0001.31,0001.13
2024-04-01 14:31:00,SystemResetWarning,0821.3,5.00,000.00,020.2,019.6,000.0,028.7,022.0,28.4,0000.0,0001.78,0001.31,0001.14
2024-04-01 14:32:00,SystemResetWarning,0821.3,5.00,000.00,020.2,019.6,000.0,028.7,022.0,28.4,0000.0,0001.79,0001.32,0001.15
2024-04-01 14:33:00,SystemResetWarning,0821.3,5.00,000.00,020.2,019.6,000.0,028.7,022.0,28.2,0000.0,0001.82,0001.33,0001.14
2024-04-01 14:34:00,SystemResetWarning,0821.3,5.00,000.00,020.2,019.6,000.0,028.7,022.0,28.2,0000.0,0001.80,0001.32,0001.14
2024-04-01 14:35:00,SystemResetWarning,0821.3,5.00,000.00,020.2,019.7,000.0,028.7,022.0,28.4,0000.0,0001.96,0001.29,0001.12
2024-04-01 14:36:00,SystemResetWarning,0821.3,5.00,000.00,020.2,019.7,000.0,028.7,022.0,28.0,0000.0,0001.92,0001.27,0001.10
2024-04-01 14:37:00,SystemResetWarning,0821.3,5.00,000.00,020.2,019.7,000.0,028.7,022.0,27.7,0000.0,0001.87,0001.24,0001.08
2024-04-01 14:38:00,SystemResetWarning,0821.4,4.99,000.00,020.2,019.7,000.0,028.7,022.0,27.5,0000.0,0001.80,0001.20,0001.05
2024-04-01 14:39:00,SystemResetWarning,0821.4,5.00,000.00,020.2,019.7,000.0,028.7,022.0,26.7,0000.0,0001.82,0001.16,0001.03
2024-04-01 14:40:00,SystemResetWarning,0821.4,5.00,000.00,020.2,019.7,000.0,028.7,022.0,26.8,0000.0,0001.78,0001.15,0001.03
2024-04-01 14:41:00,SystemResetWarning,0821.4,5.00,000.00,020.2,019.7,000.0,028.7,022.1,27.3,0000.0,0001.79,0001.16,0001.02
2024-04-01 14:42:00,SystemResetWarning,0821.4,5.00,000.00,020.2,019.7,000.0,028.7,022.1,28.1,0000.0,0001.74,0001.14,0001.01
2024-04-01 14:43:00,SystemResetWarning,0821.4,5.00,000.00,020.3,019.7,000.0,028.7,022.1,28.6,0000.0,0001.76,0001.15,0001.01
2024-04-01 14:44:00,SystemResetWarning,0821.6,5.00,000.00,020.3,019.7,000.0,028.7,022.1,28.8,0000.0,0001.69,0001.12,0001.01
2024-04-01 14:45:00,SystemResetWarning,0821.6,5.00,000.00,020.3,019.7,000.0,028.7,022.1,28.7,0000.0,0001.93,0001.11,0001.02
2024-04-01 14:46:00,SystemResetWarning,0822.0,5.00,000.00,020.3,019.8,000.0,028.7,022.1,28.1,0000.0,0002.19,0001.12,0001.03
2024-04-01 14:47:00,SystemResetWarning,0822.0,5.00,000.00,020.3,019.8,000.0,028.7,022.1,28.0,0000.0,0002.13,0001.13,0001.05
2024-04-01 14:48:00,SystemResetWarning,0822.0,5.01,000.00,020.3,019.8,000.0,028.8,022.1,28.9,0000.0,0002.28,0001.16,0001.07
2024-04-01 14:49:00,SystemResetWarning,0821.8,5.01,000.00,020.3,019.8,000.0,028.8,022.1,29.4,0000.0,0002.55,0001.21,0001.11
2024-04-01 14:50:00,SystemResetWarning,0821.5,5.00,000.00,020.3,019.8,000.0,028.8,022.1,29.0,0000.0,0002.48,0001.23,0001.14
2024-04-01 14:51:00,SystemResetWarning,0821.8,4.99,000.00,020.3,019.8,000.0,028.8,022.1,29.5,0000.0,0002.51,0001.25,0001.16
2024-04-01 14:52:00,SystemResetWarning,0822.0,4.99,000.00,020.3,019.8,000.0,028.8,022.1,28.6,0000.0,0002.59,0001.26,0001.18
2024-04-01 14:53:00,SystemResetWarning,0822.0,5.01,000.00,020.3,019.8,000.0,028.8,022.2,28.1,0000.0,0002.73,0001.32,0001.21
2024-04-01 14:54:00,SystemResetWarning,0822.0,5.01,000.00,020.4,019.8,000.0,028.8,022.2,28.1,0000.0,0002.76,0001.34,0001.22
2024-04-01 14:55:00,SystemResetWarning,0822.0,5.00,000.00,020.4,019.8,000.0,028.8,022.2,28.1,0000.0,0002.94,0001.38,0001.25
2024-04-01 14:56:00,SystemResetWarning,0822.0,4.99,000.00,020.4,019.8,000.0,028.8,022.2,28.1,0000.0,0002.72,0001.41,0001.28
2024-04-01 14:57:00,SystemResetWarning,0821.8,4.99,000.00,020.4,019.8,000.0,028.8,022.2,28.2,0000.0,0002.33,0001.45,0001.31
2024-04-01 14:58:00,SystemResetWarning,0821.4,5.00,000.00,020.4,019.8,000.0,028.8,022.2,29.1,0000.0,0002.40,0001.51,0001.35
2024-04-01 14:59:00,SystemResetWarning,0821.8,4.99,000.00,020.4,019.8,000.0,028.8,022.2,28.5,0000.0,0002.40,0001.56,0001.38
